Wind_Speed
80 79 75 73 73 78 83 84 86 85 87 87 93 92 97 101 104 106 108 106 108 111 112 116 121 125 129 131 132 138 143 146 148 151 154 154 154 157 164 159 126 117 112
85 77 72 72 74 83 86 83 87 89 92 94 96 98 102 103 107 105 107 109 112 115 121 126 128 132 134 135 141 144 149 149 154 155 155 162 160 166 142 125 117 114 117
73 75 77 76 77 76 77 83 88 89 93 97 99 100 102 104 105 107 110 113 119 125 125 130 132 134 137 144 147 150 152 156 156 160 164 163 163 131 126 119 117 120 122
74 70 74 74 78 82 87 85 87 89 92 96 101 101 103 104 108 111 116 121 125 130 131 133 136 139 145 146 152 155 155 160 160 164 159 147 120 123 122 124 126 129 132
65 73 77 76 79 81 86 89 94 96 95 99 100 102 105 110 115 120 123 128 130 132 134 138 140 144 151 151 157 159 163 164 162 153 129 122 121 122 129 130 134 137 139
78 71 76 79 80 85 90 92 93 91 95 98 106 109 113 117 119 118 122 127 132 135 138 143 146 150 156 160 161 161 161 147 126 122 124 125 131 131 134 138 142 141 142
72 73 78 82 83 86 86 92 97 100 102 104 107 110 112 116 120 124 131 131 137 142 145 147 153 159 162 157 154 138 125 124 125 130 131 134 138 140 142 144 145 146 144
72 76 77 80 84 86 87 92 94 97 101 104 108 114 118 120 126 130 133 138 142 147 151 153 155 155 150 133 123 120 123 126 133 137 141 143 144 145 145 145 143 138 135
71 75 76 79 83 86 88 90 95 100 105 108 114 116 120 127 132 137 138 144 147 147 148 153 140 128 123 117 120 126 130 135 140 143 146 147 148 148 144 139 137 137 133
69 78 79 78 79 84 90 97 103 105 110 111 113 121 126 130 135 137 140 138 147 152 138 125 121 114 120 125 128 133 137 140 143 146 149 149 146 141 139 139 135 131 130
71 77 80 85 91 94 96 99 104 109 112 116 123 126 129 132 135 141 141 146 138 120 114 113 119 124 129 134 138 140 143 146 147 146 141 136 135 137 134 132 133 130 127
78 79 85 89 94 97 101 106 110 114 115 119 124 126 131 132 139 143 126 113 109 111 117 122 125 130 135 140 143 146 148 145 140 137 136 136 134 133 131 129 127 124 122
83 86 89 94 99 101 104 109 113 115 117 124 127 129 135 131 116 108 106 109 115 119 123 129 132 136 140 143 146 144 139 135 135 136 134 134 134 132 128 123 121 117 114
85 90 93 97 100 101 103 107 110 113 124 132 132 120 105 101 103 106 111 116 123 126 130 134 137 140 142 141 137 136 136 135 132 132 134 133 130 127 122 117 113 107 102
87 89 91 90 93 103 106 108 117 127 121 102 98 97 100 104 109 114 119 122 127 131 135 138 140 138 134 133 134 134 132 131 132 132 131 127 124 118 114 108 104 98 93
83 88 91 96 106 107 113 116 98 90 89 93 97 103 107 112 117 121 126 128 129 133 136 134 130 128 130 130 129 129 132 132 132 129 126 122 118 111 105 103 97 90 85
100 105 108 111 111 106 82 80 84 89 95 99 104 108 113 117 121 124 127 131 130 127 124 124 125 126 125 125 128 130 130 130 127 124 121 118 110 104 98 93 91 85 79
90 87 85 77 73 75 81 88 92 96 101 106 111 114 117 119 122 123 122 119 120 121 121 120 121 121 125 127 128 129 129 127 124 119 113 108 103 96 90 88 86 77 74
60 63 68 74 79 83 88 93 98 102 105 109 112 115 115 113 111 111 113 115 116 116 117 118 120 123 126 127 126 126 125 122 118 111 105 100 93 87 85 82 80 75 69
66 70 76 81 85 90 93 96 98 101 104 104 103 104 105 106 108 111 110 109 110 111 115 119 122 123 123 123 124 122 118 113 108 103 98 92 86 80 78 78 74 69 66
72 76 80 83 85 87 89 90 89 90 93 96 97 99 102 104 105 104 104 103 106 111 117 120 120 120 121 120 118 113 107 104 100 95 91 86 81 76 74 73 67 62 60
72 72 74 76 78 80 81 84 86 88 90 92 94 95 94 94 94 96 100 105 110 113 115 116 117 117 115 112 108 103 99 96 93 89 85 81 76 73 69 68 63 59 54
64 68 70 71 72 75 77 80 83 84 84 84 85 86 89 92 94 98 103 108 111 112 111 111 113 112 108 103 98 95 93 91 87 83 81 76 73 69 65 63 58 54 50
69 68 68 69 71 71 72 72 73 75 77 80 84 87 91 93 98 103 106 109 110 111 111 110 107 103 100 96 91 89 86 84 81 79 75 72 69 64 60 59 53 45 43
63 61 60 62 63 64 65 69 74 79 82 85 87 91 94 97 103 105 108 108 109 110 110 106 99 94 92 90 87 84 81 78 75 73 72 69 64 60 55 52 48 40 38
58 59 59 61 65 68 72 74 77 81 84 86 89 93 96 101 104 107 107 107 108 108 105 99 95 90 87 84 80 77 74 72 71 68 66 62 58 54 48 45 43 38 35
Wind_Direction
252 256 261 265 261 261 264 270 271 272 274 277 279 281 284 286 287 287 288 288 292 293 293 293 293 294 295 295 294 296 297 300 300 300 302 305 306 307 307 307 305 305 304
252 257 261 261 262 265 270 265 266 270 275 276 277 280 282 284 284 286 287 289 290 290 292 292 293 294 294 295 295 296 301 300 300 302 302 304 306 306 306 302 303 304 303
256 256 255 256 259 261 260 265 268 272 275 276 280 280 282 284 285 288 288 287 288 290 292 293 294 294 294 295 298 297 298 299 301 302 303 305 305 302 301 303 303 302 301
250 247 253 255 253 258 264 266 270 273 275 277 279 280 282 285 286 287 286 289 290 291 293 292 293 294 297 298 298 298 299 301 302 303 304 304 299 299 302 303 302 302 301
244 249 251 254 259 263 266 270 273 276 278 279 280 281 284 286 288 289 289 290 291 292 292 292 292 295 298 298 298 298 300 302 300 303 300 297 300 302 301 301 301 300 300
246 252 254 260 264 266 268 271 275 277 277 277 280 284 285 284 287 288 287 289 290 289 291 291 293 297 296 298 299 299 301 302 299 299 300 302 302 301 300 300 300 299 299
249 253 256 259 264 267 268 271 272 276 280 280 282 283 285 284 285 287 286 290 290 291 293 295 295 296 297 300 299 301 301 301 301 302 302 302 301 300 300 300 300 300 299
252 256 261 262 264 268 272 273 277 276 276 279 281 282 281 284 285 286 290 292 292 292 294 296 296 298 298 300 301 298 300 302 301 301 302 302 301 301 300 300 300 300 300
256 256 259 261 267 271 275 275 273 273 277 280 280 282 286 289 289 290 290 291 293 296 299 299 297 299 300 299 301 301 301 301 301 301 301 302 302 302 303 302 303 303 302
258 259 261 263 261 262 268 267 274 276 277 279 284 285 286 286 287 290 292 297 298 297 297 298 299 300 300 301 301 301 300 300 301 302 302 303 303 303 304 305 305 305 303
252 255 260 262 266 268 270 271 273 275 278 281 282 287 290 290 291 296 296 296 298 298 299 299 299 300 301 301 301 301 302 302 302 304 304 303 303 305 305 305 306 305 303
258 260 263 268 268 268 270 273 276 279 282 284 288 290 293 294 294 293 294 297 297 298 298 298 299 300 301 301 302 302 303 304 303 305 304 305 306 306 306 306 306 306 305
255 259 264 267 270 272 273 276 280 283 283 290 294 293 293 293 295 295 295 297 297 298 299 300 300 300 301 301 302 303 303 305 305 305 306 307 307 308 308 308 308 307 305
265 267 269 272 275 277 282 283 281 283 286 292 292 294 294 294 296 296 296 297 299 299 299 300 301 302 302 303 303 304 305 305 307 307 308 309 310 310 310 309 308 307 306
267 271 274 280 278 279 283 283 284 288 290 293 293 294 295 296 296 296 297 299 299 301 302 301 302 303 303 304 305 305 306 307 309 310 310 311 312 312 311 310 309 308 308
272 277 279 280 283 285 286 289 291 291 292 294 294 295 295 296 297 299 299 300 300 299 300 302 302 303 305 305 305 307 308 310 311 312 313 314 314 313 313 312 311 311 311
277 278 280 285 287 287 288 291 292 293 293 294 295 296 298 298 298 299 299 299 302 302 301 304 305 304 305 307 308 309 310 312 313 314 315 314 315 315 315 313 312 314 314
282 284 286 288 289 289 291 292 292 293 295 297 297 298 297 297 297 299 299 300 301 304 305 305 305 306 307 309 310 312 313 314 314 315 315 315 316 316 316 314 314 317 315
290 290 289 289 290 292 293 293 295 295 295 295 296 297 298 299 298 300 301 303 305 306 306 306 307 309 310 312 314 313 314 314 314 315 316 316 318 318 317 315 316 319 315
291 291 292 293 293 292 293 293 294 294 295 297 298 298 299 300 301 302 304 306 307 307 307 308 310 312 313 314 313 314 315 315 315 316 317 318 319 320 318 317 319 320 316
295 294 293 292 292 292 294 296 297 297 297 299 300 300 301 303 305 306 307 308 309 310 310 312 313 313 313 314 315 316 315 315 317 317 318 320 321 321 319 318 320 320 316
301 301 300 299 297 296 296 296 299 300 300 300 301 302 304 305 307 309 311 312 312 313 314 314 314 314 315 316 317 316 316 317 318 319 320 321 322 321 320 320 322 321 317
305 310 309 305 302 301 301 301 300 300 302 304 306 307 308 311 313 314 315 314 315 316 316 316 316 316 317 317 318 317 318 318 320 321 322 323 323 322 322 320 323 320 317
315 311 308 306 305 303 301 303 305 307 309 312 313 314 316 317 317 318 317 317 318 318 318 317 318 318 318 319 319 319 320 320 322 322 323 324 324 324 322 319 324 321 319
313 313 312 311 310 310 311 314 318 319 319 318 318 318 320 321 320 319 319 320 321 320 318 319 320 321 320 320 321 321 321 322 322 323 324 324 326 326 322 322 325 322 321
320 323 324 325 324 323 322 321 321 321 322 321 321 322 323 322 321 321 322 323 322 321 321 322 322 322 322 322 322 322 322 322 323 324 323 324 325 324 323 324 326 322 322
Height
10640 10641 10640 10640 10636 10635 10631 10627 10620 10615 10610 10603 10594 10588 10582 10575 10568 10560 10552 10542 10532 10522 10512 10502 10491 10479 10467 10455 10441 10428 10414 10397 10382 10368 10351 10334 10316 10304 10289 10275 10259 10246 10236
10625 10629 10624 10625 10614 10615 10613 10610 10601 10597 10592 10585 10579 10576 10566 10559 10550 10540 10531 10522 10512 10500 10490 10479 10466 10453 10442 10428 10413 10398 10383 10366 10351 10337 10318 10302 10284 10271 10256 10245 10233 10219 10209
10611 10612 10608 10607 10600 10597 10595 10590 10584 10581 10575 10568 10562 10556 10547 10537 10528 10520 10511 10500 10489 10478 10466 10453 10440 10428 10414 10400 10384 10368 10349 10332 10313 10302 10286 10269 10255 10238 10230 10215 10203 10190 10179
10594 10593 10590 10591 10588 10584 10577 10572 10566 10564 10559 10551 10542 10533 10526 10518 10510 10501 10489 10480 10467 10454 10441 10425 10411 10398 10383 10369 10351 10332 10311 10297 10283 10267 10250 10237 10220 10207 10196 10185 10173 10156 10146
10575 10575 10576 10574 10570 10567 10560 10557 10551 10545 10538 10530 10522 10515 10508 10500 10489 10478 10468 10454 10440 10429 10414 10397 10383 10366 10350 10334 10317 10295 10278 10263 10250 10235 10218 10207 10192 10177 10165 10151 10138 10124 10108
10561 10562 10561 10557 10554 10549 10543 10540 10534 10527 10519 10512 10503 10497 10486 10477 10466 10454 10440 10428 10414 10398 10383 10367 10352 10334 10318 10302 10281 10264 10247 10232 10212 10203 10191 10177 10165 10147 10133 10118 10102 10091 10081
10548 10547 10544 10540 10538 10536 10532 10525 10516 10510 10503 10494 10485 10476 10465 10453 10442 10431 10417 10404 10389 10372 10354 10338 10321 10302 10288 10270 10252 10232 10219 10200 10180 10169 10156 10140 10128 10110 10098 10081 10060 10046 10030
10530 10531 10530 10528 10524 10519 10513 10505 10501 10492 10484 10474 10465 10455 10442 10429 10415 10402 10389 10374 10358 10343 10327 10307 10290 10271 10251 10237 10224 10204 10192 10174 10152 10138 10119 10102 10084 10068 10051 10035 10018 10002 9984
10518 10516 10514 10511 10507 10501 10495 10488 10480 10471 10462 10452 10441 10431 10419 10408 10394 10378 10363 10347 10331 10314 10295 10278 10256 10239 10224 10209 10198 10177 10161 10144 10122 10103 10083 10063 10043 10022 10004 9989 9970 9954 9943
10505 10499 10498 10495 10489 10483 10476 10467 10461 10451 10440 10428 10417 10407 10396 10384 10370 10355 10338 10321 10299 10283 10262 10244 10230 10214 10199 10180 10166 10148 10130 10111 10093 10073 10049 10025 10003 9982 9962 9944 9928 9912 9892
10490 10485 10482 10477 10470 10465 10457 10447 10438 10428 10418 10408 10397 10384 10371 10358 10341 10324 10308 10289 10270 10251 10237 10220 10205 10186 10168 10148 10129 10111 10093 10075 10054 10033 10012 9990 9970 9952 9933 9910 9890 9869 9851
10475 10470 10465 10460 10454 10445 10436 10427 10417 10405 10395 10384 10373 10358 10344 10327 10311 10296 10277 10262 10243 10230 10213 10194 10177 10158 10137 10117 10097 10077 10056 10036 10015 9995 9973 9954 9936 9917 9899 9879 9856 9834 9806
10456 10454 10447 10439 10433 10426 10416 10406 10397 10385 10373 10359 10344 10328 10315 10298 10282 10267 10253 10240 10219 10201 10185 10167 10147 10129 10109 10087 10063 10041 10020 10002 9982 9959 9937 9919 9899 9879 9860 9841 9818 9799 9775
10440 10434 10428 10423 10415 10405 10394 10383 10372 10359 10345 10329 10314 10300 10286 10274 10260 10244 10227 10212 10190 10172 10154 10135 10117 10096 10073 10051 10028 10006 9988 9969 9949 9928 9907 9884 9862 9841 9821 9804 9785 9767 9749
10420 10415 10407 10400 10391 10381 10370 10360 10348 10334 10320 10303 10289 10276 10264 10250 10234 10217 10200 10186 10164 10145 10125 10101 10080 10060 10039 10016 9994 9974 9956 9937 9917 9894 9871 9849 9829 9809 9788 9770 9752 9735 9719
10400 10393 10385 10376 10367 10357 10346 10335 10319 10307 10295 10283 10268 10253 10238 10223 10206 10190 10169 10154 10138 10115 10093 10073 10052 10032 10011 9988 9967 9946 9925 9904 9883 9860 9837 9818 9797 9778 9760 9738 9720 9707 9694
10382 10375 10366 10354 10344 10333 10320 10310 10300 10286 10273 10259 10243 10228 10212 10197 10179 10162 10142 10122 10104 10082 10062 10045 10025 10003 9981 9960 9941 9918 9895 9873 9850 9829 9809 9787 9768 9751 9734 9715 9696 9684 9667
10356 10349 10339 10330 10322 10312 10301 10290 10277 10263 10248 10233 10218 10202 10187 10170 10151 10132 10112 10092 10074 10055 10034 10015 9993 9973 9952 9933 9910 9886 9861 9840 9820 9803 9784 9762 9743 9726 9710 9692 9674 9666 9650
10338 10330 10322 10313 10302 10291 10279 10266 10252 10238 10224 10210 10192 10174 10159 10140 10120 10104 10086 10068 10049 10028 10004 9984 9965 9945 9921 9898 9877 9853 9833 9810 9791 9774 9757 9739 9722 9706 9687 9673 9657 9645 9633
10323 10313 10303 10292 10280 10267 10254 10239 10226 10211 10195 10180 10164 10146 10129 10112 10095 10078 10062 10044 10024 10002 9978 9956 9936 9915 9892 9871 9848 9827 9806 9785 9766 9749 9732 9716 9702 9688 9670 9654 9642 9629 9614
10304 10293 10281 10268 10255 10240 10227 10213 10199 10184 10169 10154 10138 10122 10105 10089 10071 10054 10035 10017 9997 9974 9950 9929 9907 9886 9864 9844 9821 9801 9781 9762 9745 9728 9712 9698 9683 9668 9654 9640 9629 9617 9603
10283 10270 10256 10242 10227 10215 10202 10189 10175 10161 10145 10130 10116 10101 10085 10068 10050 10031 10010 9990 9969 9949 9928 9903 9880 9859 9838 9817 9796 9774 9757 9740 9724 9708 9693 9680 9666 9653 9641 9627 9615 9603 9592
10261 10247 10232 10219 10206 10194 10181 10167 10153 10139 10124 10109 10093 10076 10060 10043 10025 10006 9985 9963 9942 9921 9902 9880 9855 9831 9813 9794 9776 9753 9736 9720 9705 9690 9676 9663 9650 9638 9626 9614 9604 9591 9580
10237 10223 10210 10197 10185 10173 10160 10146 10131 10117 10101 10085 10068 10051 10035 10018 9999 9979 9959 9938 9916 9894 9874 9853 9833 9810 9787 9769 9753 9734 9718 9702 9688 9673 9661 9648 9636 9624 9613 9602 9594 9584 9572
10215 10203 10192 10179 10165 10152 10138 10123 10109 10094 10079 10063 10047 10030 10013 9995 9974 9954 9932 9912 9890 9868 9844 9826 9808 9788 9768 9749 9733 9717 9701 9686 9673 9660 9646 9634 9624 9613 9601 9592 9583 9575 9567
10199 10186 10172 10158 10144 10130 10117 10103 10089 10074 10058 10043 10026 10009 9991 9972 9951 9930 9910 9888 9865 9840 9817 9800 9782 9766 9749 9732 9716 9702 9688 9674 9660 9648 9636 9625 9616 9604 9593 9584 9576 9568 9561